Temperature
23 23 23 23 23 23 23 23 22 22 22 22 22 22 21 21 20 19 19 18 17 17 16 16 15 15 15 14 14 14 13 13 13 13 13 13 13 13 12 12 12 12 12 12
22 23 23 22 22 22 22 22 22 22 22 23 22 22 21 20 20 19 18 18 17 16 16 16 15 15 14 14 13 13 13 13 13 13 12 12 12 12 12 12 12 12 12 12
20 22 22 21 22 22 22 22 22 21 21 22 21 21 20 20 19 18 18 17 16 16 16 15 15 15 14 13 13 13 13 13 12 12 12 12 12 12 12 11 11 12 11 11
20 20 19 21 23 22 22 22 22 22 21 21 21 20 19 19 18 17 17 16 16 15 15 15 15 14 14 13 13 13 12 12 12 12 12 12 11 11 11 11 11 11 11 11
19 19 20 21 22 22 21 21 22 21 21 21 20 20 19 18 17 17 16 16 15 15 15 14 14 14 14 13 13 12 12 12 12 12 11 11 11 11 11 11 11 11 10 10
18 18 19 20 21 21 21 19 20 20 20 20 19 18 17 17 17 16 16 15 15 15 14 14 14 13 13 13 12 12 12 12 11 11 11 11 11 11 10 10 10 10 10 10
18 18 19 20 20 20 19 18 19 20 19 19 18 17 17 17 16 16 15 15 14 14 14 13 13 13 13 12 12 12 11 11 11 11 11 10 10 10 10 10 10 10 10 10
18 17 17 19 19 19 18 19 19 18 18 18 17 17 16 16 15 15 15 14 14 14 13 13 13 13 12 12 12 11 11 11 11 11 10 10 10 10 10 10 10 10 10 9
17 17 18 18 18 18 18 18 18 18 17 17 16 16 16 15 15 14 14 14 13 13 13 13 12 12 12 12 11 11 11 11 11 10 10 10 10 10 9 9 9 9 9 9
17 17 17 17 17 17 17 17 17 16 16 16 15 15 15 14 14 14 13 13 13 13 12 12 12 12 11 11 11 11 11 10 10 10 10 10 9 9 9 9 9 9 9 9
16 17 17 17 16 16 16 16 16 15 15 15 14 14 14 14 14 13 13 13 12 12 12 11 11 11 11 11 11 10 10 10 10 10 10 9 9 9 9 9 9 9 9 9
15 16 16 16 16 16 15 15 15 15 14 14 14 14 14 13 13 13 12 12 12 12 11 11 11 11 11 10 10 10 10 10 9 9 9 9 9 9 8 8 8 8 8 8
16 16 16 15 15 15 14 14 14 14 14 13 13 13 13 13 12 12 12 12 11 11 11 11 10 10 10 10 10 9 9 9 9 9 9 9 8 8 8 8 8 8 8 8
15 15 15 14 14 14 14 14 14 13 13 13 13 12 12 12 12 11 11 11 11 10 10 10 10 10 10 10 9 9 9 9 9 8 8 8 8 8 8 8 7 7 7 7
14 14 14 13 13 13 13 13 13 13 12 12 12 12 12 11 11 11 10 10 10 10 10 10 9 9 9 9 9 9 8 8 8 8 8 8 8 7 7 7 7 7 7 7
13 13 13 13 13 12 12 12 12 12 12 11 11 11 11 11 10 10 10 10 10 10 9 9 9 9 9 9 8 8 8 8 8 8 7 7 7 7 7 7 6 7 6 6
12 12 12 12 12 12 12 12 12 11 11 11 11 10 10 10 10 10 9 9 9 9 9 9 8 8 8 8 8 8 8 8 7 7 7 7 7 6 6 6 6 6 6 6
12 12 12 11 11 11 11 11 11 11 11 10 10 10 10 9 9 9 9 8 8 8 8 8 8 8 8 7 7 7 7 7 7 7 7 7 6 6 6 6 5 5 5 5
11 11 11 11 11 10 10 11 10 10 10 10 9 9 9 9 9 8 8 8 8 8 7 7 7 7 7 7 7 7 7 7 7 7 6 6 6 6 6 5 5 5 5 5
10 10 10 10 10 10 10 10 10 9 9 9 9 9 9 8 8 8 7 7 7 7 7 7 7 7 7 7 6 6 6 6 6 6 6 6 6 5 5 5 5 5 4 4
10 10 9 9 9 9 9 9 9 9 9 9 8 8 8 8 8 7 7 7 7 7 7 7 7 6 6 6 6 6 6 6 6 6 6 5 5 5 5 5 4 4 4 4
9 9 9 9 9 9 9 9 8 8 8 8 8 8 7 7 7 7 7 7 7 7 6 6 6 6 6 6 6 6 6 6 5 5 5 5 5 4 4 4 4 4 4 3
8 8 8 8 8 8 8 8 8 8 8 8 7 7 7 7 7 7 6 6 6 6 6 6 6 6 5 5 5 5 5 5 5 5 5 4 4 4 4 4 4 4 3 3
8 8 8 8 7 7 7 7 7 7 7 7 7 7 7 7 7 7 6 6 6 6 6 5 5 5 5 5 5 5 5 5 4 4 4 4 4 4 4 4 4 3 3 3
7 7 7 7 7 7 7 7 7 7 6 6 6 6 6 6 6 6 6 6 6 5 5 5 5 5 4 4 4 4 4 4 4 4 4 4 4 4 4 3 3 3 3 3
7 7 6 7 7 6 6 6 6 6 6 6 6 6 6 6 5 5 5 5 5 5 4 4 4 4 4 4 4 4 3 3 3 3 3 3 3 3 3 3 3 2 2 2
6 6 6 6 6 6 6 6 6 5 5 5 5 5 5 5 5 5 4 4 4 4 4 4 4 3 3 3 3 3 3 3 3 3 3 3 3 3 3 3 2 2 2 2
Wind_Speed
11 10 9 9 10 9 10 9 8 7 5 3 1 1 2 3 2 3 3 4 4 4 4 4 3 3 2 2 2 2 2 2 1 1 2 2 2 2 2 2 2 1 1 1
11 10 10 11 11 11 10 10 10 9 7 3 1 2 1 2 3 3 3 3 3 3 3 3 3 2 2 2 2 2 2 1 1 2 2 1 1 1 1 1 1 1 1 1
10 10 10 11 9 8 8 8 8 8 4 2 1 1 2 2 3 2 2 3 3 1 1 1 2 3 3 2 2 2 2 2 2 2 2 2 1 1 1 1 1 1 1 1
8 9 10 4 0 1 4 5 5 4 2 2 1 2 2 3 3 2 2 2 1 1 1 1 1 2 3 2 2 2 2 2 1 1 1 2 2 2 2 1 1 1 1 1
6 9 9 5 2 2 3 4 3 3 2 2 2 0 2 4 4 3 3 2 1 1 1 0 1 2 2 2 2 2 2 2 1 1 1 1 2 2 2 1 2 2 2 2
8 9 7 1 2 2 2 3 2 2 1 1 1 1 1 3 3 3 3 2 1 1 1 1 1 1 2 2 2 2 2 2 2 2 2 1 2 1 1 1 2 2 2 2
11 10 5 2 2 1 3 1 3 3 2 1 1 1 1 3 3 3 2 2 1 1 1 1 1 1 1 1 1 1 2 2 2 1 2 1 1 1 1 1 1 2 2 1
8 9 6 1 2 1 2 3 3 3 3 3 3 2 2 2 2 2 2 1 1 1 1 1 0 1 1 1 1 1 1 2 1 1 1 1 1 1 1 1 2 2 1 1
3 3 2 1 2 3 4 4 4 3 3 3 3 1 1 1 1 1 1 0 0 0 0 0 0 1 1 1 1 1 2 2 2 1 1 1 1 1 1 1 1 1 1 1
6 4 4 3 3 3 3 4 4 4 3 2 2 2 1 0 1 0 1 0 0 0 0 1 1 1 1 1 1 1 2 2 2 1 1 1 1 1 0 0 1 1 1 1
9 7 6 4 3 4 4 3 4 3 2 3 3 3 2 1 1 1 1 0 1 1 1 2 2 1 1 1 1 2 2 2 2 1 1 0 0 0 0 0 1 2 2 1
8 7 7 6 4 4 4 4 4 3 3 3 3 3 3 2 1 1 1 1 1 1 1 2 1 1 1 1 1 2 2 2 1 1 1 1 1 1 2 1 1 2 2 2
8 8 7 5 5 4 5 6 5 4 3 3 3 3 3 1 1 1 1 1 1 1 2 1 1 1 1 2 2 2 2 1 1 1 1 1 1 1 1 2 1 2 3 4
7 6 6 6 5 5 5 6 5 4 3 3 3 3 2 1 1 1 1 2 2 1 2 1 1 2 1 1 1 2 1 1 1 1 1 1 1 1 1 1 2 2 3 4
7 7 7 6 6 5 5 5 5 4 3 3 3 3 2 2 2 1 1 1 1 2 2 1 1 2 1 1 1 2 1 1 1 1 1 1 1 1 1 2 2 2 2 2
7 6 5 5 5 6 5 5 5 5 4 4 3 3 2 2 1 1 1 1 2 2 2 2 2 3 2 1 1 1 1 1 1 1 1 1 1 1 1 2 2 2 2 2
6 6 6 6 5 5 5 4 5 5 4 4 3 2 2 2 2 2 2 2 2 2 1 2 2 2 2 1 2 1 1 1 2 1 1 1 1 1 1 1 2 2 2 2
6 5 5 5 4 4 4 4 4 4 3 3 3 3 3 3 3 2 2 2 1 1 1 2 2 2 1 2 2 1 2 2 2 2 2 2 2 1 1 2 2 2 2 2
3 3 3 3 3 3 3 3 3 3 3 3 3 3 3 3 2 2 2 2 2 2 2 1 1 2 2 2 1 1 2 2 2 2 2 2 2 2 2 2 2 2 2 2
2 2 2 3 3 3 3 2 2 3 3 3 3 2 3 2 2 2 2 2 2 1 1 0 1 1 2 1 1 1 2 2 2 2 2 2 2 2 2 2 2 2 2 2
2 2 2 3 3 3 3 3 2 2 2 2 2 2 3 2 2 2 2 2 2 1 0 1 1 1 1 1 2 2 2 3 3 2 2 2 2 2 2 2 2 2 2 2
3 2 3 3 3 3 3 3 2 2 2 2 2 2 3 3 2 2 2 2 2 1 1 1 1 1 2 3 2 2 3 3 2 2 2 2 2 2 2 2 2 2 2 2
3 3 3 3 4 4 3 3 2 2 2 2 2 3 3 3 2 2 2 1 1 1 1 1 1 2 3 2 2 3 3 3 2 2 2 2 2 2 2 2 2 2 2 1
4 3 3 4 4 3 3 3 2 2 2 2 2 2 3 2 2 1 1 1 1 1 1 2 2 3 3 2 2 2 3 2 2 2 2 2 2 2 2 2 2 2 1 2
3 4 4 4 3 3 3 2 2 2 2 2 2 2 1 1 1 0 0 0 1 1 1 2 3 3 3 2 2 2 2 2 2 2 2 1 2 2 2 2 2 2 2 2
4 4 3 3 3 3 2 1 1 1 1 1 1 1 0 0 0 0 0 1 1 1 1 1 2 2 2 2 2 2 2 2 2 2 2 2 2 2 2 2 2 2 2 1
4 3 3 3 3 2 1 1 1 2 1 1 1 1 1 1 1 0 0 1 1 1 1 1 1 1 2 2 2 2 2 1 1 2 2 2 2 2 2 2 1 1 1 1
Wind_Direction
277 280 283 276 270 267 267 270 272 278 279 277 310 65 88 109 107 97 116 127 137 146 145 137 139 142 136 140 136 122 117 120 119 112 88 70 58 40 13 4 8 6 354 357
277 271 271 269 265 259 259 269 273 276 282 307 33 77 105 107 107 111 119 125 119 123 132 146 155 146 134 132 127 127 132 132 122 119 116 120 121 97 30 357 335 333 329 331
278 279 272 258 249 247 249 258 266 273 287 318 339 46 64 74 85 85 96 102 108 117 127 158 157 150 143 152 152 151 142 138 134 141 150 160 159 145 262 257 279 301 299 302
276 279 259 254 130 265 264 264 276 285 300 324 53 77 77 83 91 84 85 95 97 90 104 143 132 143 142 139 148 156 150 146 136 145 152 163 177 201 234 246 239 251 257 271
266 265 264 257 244 256 264 272 297 295 321 10 27 121 91 68 64 73 71 72 92 56 42 94 144 142 140 149 158 153 154 163 160 150 172 192 205 221 233 237 243 246 233 248
259 264 264 256 38 353 283 259 2 347 355 27 34 253 143 77 73 69 61 53 59 52 30 25 82 125 150 164 159 166 172 176 170 169 177 209 216 240 257 235 234 239 237 225
250 258 265 333 346 305 243 314 28 357 357 354 277 339 88 82 80 80 69 45 48 56 55 24 80 142 171 175 187 185 181 167 170 182 176 187 222 254 256 236 233 241 234 219
243 247 248 360 314 270 356 8 2 1 8 19 21 44 62 68 69 83 80 62 83 91 56 26 108 164 188 203 181 140 158 167 171 183 196 193 193 257 259 221 229 245 242 276
271 261 351 5 348 353 348 333 340 347 13 24 359 349 39 68 54 60 95 91 110 120 92 22 52 197 224 230 155 158 159 178 188 194 182 169 189 246 264 219 210 232 216 259
271 268 276 284 302 312 322 316 328 347 355 339 313 309 286 230 223 269 251 194 319 206 211 267 256 276 243 226 190 189 189 185 190 197 198 190 183 201 233 271 215 216 221 234
276 273 283 277 296 304 310 314 327 338 328 326 316 306 285 259 235 240 282 245 223 219 224 250 250 243 220 196 187 207 202 193 194 189 166 151 5 304 229 243 214 215 223 225
272 278 275 276 280 308 307 300 301 305 307 302 291 289 285 269 254 253 253 278 283 268 252 259 250 218 187 194 204 215 223 209 190 182 180 181 166 9 358 281 228 215 211 221
281 293 297 298 295 298 294 293 289 285 284 295 294 277 274 271 242 260 263 265 266 269 276 279 275 277 205 182 204 219 227 228 198 187 191 207 214 209 301 338 322 269 249 241
294 293 286 288 286 288 286 287 288 284 278 282 291 284 263 258 260 254 270 273 281 280 275 270 274 284 266 160 175 203 209 233 232 200 193 215 229 239 249 266 293 312 291 254
280 278 274 271 272 274 278 279 276 274 277 278 286 279 247 239 248 252 282 304 297 290 283 276 280 289 264 184 193 204 202 204 209 212 209 221 223 236 258 268 279 298 327 317
286 284 275 263 261 262 262 262 261 261 261 265 275 273 241 240 243 246 254 250 256 269 281 295 295 294 281 209 202 210 205 221 235 224 218 223 229 235 255 264 276 280 285 296
278 272 274 274 270 268 269 272 271 265 259 260 263 270 231 212 220 230 240 245 250 257 269 282 285 289 284 225 205 202 201 220 244 235 219 225 235 242 246 250 260 275 282 286
274 272 271 268 271 282 282 277 277 276 268 260 256 254 224 215 220 230 245 253 262 276 280 280 302 310 283 251 224 207 209 217 221 220 231 247 249 239 240 251 261 270 284 292
298 298 294 285 275 266 274 285 286 277 268 252 240 240 228 226 231 232 241 255 259 267 278 297 315 302 287 275 264 238 231 228 226 228 227 240 246 242 241 244 257 268 272 282
303 313 315 312 304 296 287 274 281 277 266 256 254 253 236 229 223 222 232 245 245 248 254 293 288 278 265 263 282 262 250 243 236 236 231 224 225 235 234 238 246 258 270 277
313 303 305 303 300 299 297 285 271 270 267 247 235 243 247 246 236 227 227 244 255 263 259 240 235 249 260 291 286 269 257 244 236 232 236 235 227 229 236 245 254 258 260 270
320 323 321 317 312 302 298 294 286 275 269 245 235 242 250 246 241 243 244 236 226 204 232 235 232 246 294 305 271 267 262 253 243 234 234 235 233 234 241 257 267 273 272 275
311 311 314 308 302 303 302 299 290 273 258 248 239 237 244 241 224 221 240 230 200 206 257 249 243 276 300 289 261 265 262 256 246 237 229 221 231 235 239 253 260 267 268 272
304 306 305 304 302 297 294 298 300 294 289 283 263 250 246 250 242 220 208 193 205 209 244 234 246 271 288 271 258 257 258 253 239 238 239 228 228 234 243 250 254 259 261 265
302 302 293 291 293 292 292 303 317 321 307 295 292 284 264 237 228 220 190 188 184 199 237 260 269 273 265 264 265 264 263 255 245 245 239 234 234 236 239 243 242 243 240 240
295 292 291 292 293 287 285 283 288 295 301 298 293 295 318 3 18 60 138 216 226 234 247 262 263 268 274 282 280 269 253 250 242 233 231 228 231 238 236 236 243 242 234 229
283 280 277 274 277 282 285 285 287 292 293 294 311 331 343 349 352 337 290 264 257 244 244 253 260 271 274 280 283 284 270 260 239 226 226 224 231 234 221 223 226 225 210 209
Height
1487 1484 1484 1487 1487 1486 1489 1490 1495 1493 1491 1490 1488 1490 1492 1494 1496 1498 1499 1501 1502 1504 1505 1506 1507 1508 1508 1509 1509 1509 1509 1510 1510 1511 1511 1511 1512 1512 1512 1512 1513 1513 1513 1514
1489 1484 1484 1485 1484 1484 1486 1487 1488 1488 1489 1485 1487 1489 1491 1494 1495 1497 1499 1500 1502 1503 1504 1505 1505 1506 1506 1507 1507 1507 1508 1508 1508 1509 1509 1509 1509 1510 1510 1510 1511 1511 1511 1512
1494 1484 1484 1489 1481 1482 1483 1483 1485 1489 1489 1486 1487 1489 1491 1494 1495 1497 1498 1500 1501 1502 1503 1503 1504 1504 1504 1505 1505 1506 1506 1506 1507 1507 1507 1507 1508 1508 1508 1508 1509 1509 1509 1509
1494 1493 1500 1485 1475 1477 1480 1481 1481 1483 1484 1485 1487 1490 1491 1493 1495 1496 1498 1499 1500 1500 1501 1502 1502 1502 1503 1503 1503 1503 1504 1504 1504 1504 1505 1505 1505 1505 1506 1506 1506 1506 1507 1507
1496 1497 1490 1482 1477 1478 1481 1483 1481 1483 1484 1486 1487 1489 1491 1493 1495 1496 1497 1498 1498 1499 1499 1500 1500 1500 1501 1501 1501 1501 1501 1502 1502 1502 1502 1502 1503 1503 1503 1504 1504 1504 1504 1504
1495 1498 1496 1485 1478 1478 1481 1487 1483 1483 1484 1486 1487 1491 1493 1493 1494 1495 1496 1497 1497 1497 1498 1498 1498 1498 1498 1499 1499 1499 1499 1499 1500 1500 1500 1500 1500 1501 1501 1501 1501 1501 1501 1502
1494 1495 1487 1482 1479 1480 1491 1491 1484 1484 1485 1486 1488 1490 1492 1492 1493 1494 1495 1495 1496 1496 1496 1496 1496 1496 1496 1496 1496 1496 1497 1497 1497 1497 1497 1498 1498 1498 1498 1498 1498 1499 1499 1499
1490 1494 1493 1483 1481 1484 1486 1484 1484 1485 1486 1487 1487 1489 1490 1491 1492 1492 1493 1494 1494 1494 1494 1494 1494 1494 1494 1494 1494 1494 1494 1494 1494 1495 1495 1495 1495 1495 1495 1496 1496 1496 1496 1497
1486 1489 1484 1482 1483 1484 1484 1485 1484 1485 1485 1486 1487 1488 1489 1490 1490 1491 1491 1492 1492 1492 1491 1492 1492 1492 1491 1491 1491 1491 1492 1492 1492 1493 1493 1493 1493 1493 1493 1493 1493 1493 1493 1493
1483 1482 1482 1482 1482 1483 1484 1484 1484 1484 1485 1485 1486 1487 1487 1488 1489 1489 1489 1489 1489 1489 1489 1489 1489 1489 1489 1489 1489 1489 1489 1490 1490 1490 1490 1491 1491 1491 1490 1490 1490 1490 1490 1491
1482 1481 1481 1481 1481 1482 1482 1483 1483 1483 1484 1484 1484 1485 1485 1486 1486 1487 1487 1487 1487 1486 1486 1486 1486 1486 1486 1486 1486 1486 1487 1487 1488 1488 1488 1488 1488 1488 1488 1487 1488 1488 1488 1488
1481 1479 1479 1478 1479 1480 1481 1481 1482 1482 1482 1482 1483 1483 1483 1483 1484 1484 1484 1484 1484 1484 1484 1484 1484 1483 1483 1483 1483 1484 1484 1484 1484 1485 1485 1485 1485 1485 1485 1485 1485 1485 1486 1486
1478 1477 1476 1477 1477 1478 1479 1479 1479 1480 1480 1480 1480 1480 1480 1480 1481 1481 1481 1481 1481 1481 1481 1481 1480 1480 1480 1480 1481 1481 1481 1481 1482 1482 1482 1482 1482 1482 1482 1482 1482 1482 1482 1482
1475 1475 1474 1474 1475 1476 1476 1476 1477 1477 1477 1477 1477 1477 1477 1477 1478 1478 1478 1478 1478 1478 1478 1478 1477 1477 1477 1477 1477 1477 1478 1478 1479 1479 1479 1479 1479 1479 1479 1479 1478 1478 1478 1478
1472 1472 1471 1471 1472 1472 1473 1473 1473 1473 1474 1474 1474 1474 1473 1474 1474 1474 1475 1475 1475 1475 1475 1474 1474 1474 1474 1474 1474 1474 1475 1475 1476 1476 1476 1476 1476 1476 1476 1476 1475 1475 1474 1474
1468 1468 1468 1468 1468 1468 1469 1469 1469 1469 1470 1470 1470 1470 1470 1470 1471 1471 1471 1471 1471 1471 1471 1471 1471 1470 1471 1471 1471 1471 1471 1472 1472 1472 1472 1473 1473 1473 1473 1472 1472 1471 1470 1470
1465 1464 1465 1465 1465 1465 1465 1466 1466 1466 1466 1466 1467 1466 1466 1467 1467 1467 1468 1468 1468 1468 1468 1467 1467 1467 1467 1467 1467 1468 1468 1468 1469 1469 1469 1469 1469 1469 1469 1469 1468 1467 1467 1466
1461 1461 1462 1462 1462 1462 1462 1462 1462 1463 1463 1463 1463 1463 1463 1463 1463 1463 1464 1464 1464 1464 1464 1464 1464 1464 1464 1464 1464 1464 1464 1464 1465 1465 1465 1465 1465 1465 1465 1465 1464 1464 1463 1462
1458 1458 1458 1458 1458 1459 1459 1459 1459 1460 1459 1459 1459 1459 1460 1460 1460 1461 1460 1460 1460 1460 1460 1461 1460 1460 1460 1460 1460 1460 1461 1461 1461 1461 1461 1461 1462 1462 1462 1461 1461 1460 1459 1458
1456 1456 1456 1456 1455 1456 1456 1456 1456 1456 1456 1456 1456 1456 1456 1457 1457 1457 1457 1457 1457 1457 1457 1457 1457 1456 1456 1456 1456 1457 1457 1457 1457 1457 1457 1457 1458 1458 1458 1458 1457 1456 1456 1455
1454 1454 1453 1453 1453 1453 1453 1453 1453 1453 1453 1453 1453 1453 1453 1453 1454 1454 1454 1453 1454 1454 1454 1453 1453 1452 1452 1452 1452 1452 1453 1453 1453 1453 1453 1453 1454 1454 1454 1453 1453 1452 1452 1451
1452 1452 1451 1451 1451 1451 1451 1450 1450 1449 1449 1449 1449 1449 1450 1450 1450 1451 1451 1451 1450 1450 1450 1449 1449 1449 1448 1448 1448 1448 1448 1448 1449 1449 1449 1449 1449 1449 1449 1449 1448 1448 1447 1447
1451 1450 1450 1449 1449 1448 1448 1447 1447 1447 1446 1446 1446 1446 1446 1447 1447 1447 1447 1447 1447 1447 1446 1446 1445 1445 1445 1444 1444 1444 1444 1444 1444 1444 1445 1445 1445 1445 1445 1444 1444 1444 1443 1443
1449 1448 1448 1447 1447 1446 1445 1445 1445 1444 1444 1444 1444 1444 1444 1444 1444 1444 1444 1444 1444 1443 1442 1442 1441 1441 1441 1440 1440 1440 1440 1440 1440 1440 1440 1440 1440 1440 1440 1440 1440 1440 1440 1439
1446 1446 1445 1445 1444 1444 1443 1443 1442 1442 1441 1441 1441 1441 1441 1441 1441 1440 1441 1440 1440 1440 1439 1438 1438 1437 1437 1436 1436 1435 1435 1435 1435 1435 1435 1436 1436 1436 1436 1436 1436 1436 1436 1435
1444 1443 1443 1442 1442 1442 1441 1440 1440 1439 1439 1438 1438 1438 1438 1438 1438 1437 1437 1437 1437 1436 1436 1435 1434 1433 1433 1432 1432 1431 1431 1431 1431 1431 1431 1431 1431 1431 1431 1432 1432 1432 1431 1431
1441 1440 1440 1440 1439 1439 1438 1438 1437 1437 1437 1436 1435 1435 1435 1435 1435 1434 1434 1434 1433 1433 1432 1431 1430 1430 1429 1428 1428 1427 1427 1427 1426 1426 1427 1427 1427 1427 1427 1427 1427 1427 1427 1427